Rochester, NH

4:59 AM EDT on August 21, 2017 (GMT -0400)
Skyhaven

Weather History for KDAW - May, 2013

Change the Weather History Date:

Monday, May 20, 2013

  Actual Average (KPSM) Record (KPSM)
Temperature  
Mean Temperature 62 °F -  
Max Temperature 77 °F 63 °F 91 °F (1996)
Min Temperature 50 °F 44 °F 32 °F (1981)
Degree Days  
Heating Degree Days 2    
Growing Degree Days 12 (Base 50)    
Moisture  
Dew Point 56 °F    
Average Humidity 85    
Maximum Humidity 100    
Minimum Humidity 60    
Precipitation  
Precipitation 0.14 in - - ()
Sea Level Pressure  
Sea Level Pressure 30.02 in    
Wind  
Wind Speed 2 mph (NW)    
Max Wind Speed 12 mph    
Max Gust Speed 17 mph    
Visibility 6 miles    
Events Fog , Rain    
Averages and records for this station are not official NWS values.
T = Trace of Precipitation, MM = Missing Value Source: NWS Daily Summary

Daily Weather History Graph

Daily Weather History Graph

Search for Another Location

Airport or City:

Trip Planner

Search our weather history database for the weather conditions in past years. The results will help you decide how hot, cold, wet, or windy it might be!

Date:

Astronomy

May. 20, 2013 Rise Set
Actual Time 5:14 AM EDT 8:06 PM EDT
Civil Twilight 4:41 AM EDT 8:40 PM EDT
Nautical Twilight 3:58 AM EDT 9:22 PM EDT
Astronomical Twilight 3:09 AM EDT 10:12 PM EDT
Moon 3:03 PM EDT (5/20) 2:16 AM EDT (5/20)
Length of Visible Light 15h 58m
Length of Day
14h 51m
Waxing Gibbous, 75% of the Moon is Illuminated
May 20
Waxing Gibbous
May 25
Full
May 31
Last Quarter
Jun 8
New
Jun 16
First Quarter

Hourly Weather History & Observations

Time (EDT) Temp. Dew Point Humidity Pressure Visibility Wind Dir Wind Speed Gust Speed Precip Events Conditions
12:51 AM 50.0 °F 48.9 °F 96% 30.19 in 2.5 mi ESE 3.5 mph - 0.02 in Rain Light Rain
1:51 AM 51.1 °F 48.9 °F 92% 30.15 in 2.0 mi ESE 3.5 mph - 0.03 in Rain Rain
2:40 AM 51.8 °F 50.0 °F 94% 30.12 in 1.8 mi Calm Calm - 0.04 in   Overcast
2:51 AM 52.0 °F 51.1 °F 97% 30.11 in 1.5 mi Calm Calm - 0.04 in   Overcast
3:51 AM 52.0 °F 51.1 °F 97% 30.09 in 1.5 mi Calm Calm - 0.03 in Rain Light Rain
4:02 AM 51.8 °F 51.8 °F 100% 30.09 in 2.0 mi Calm Calm - 0.01 in   Overcast
4:11 AM 53.6 °F 51.8 °F 94% 30.09 in 1.8 mi Calm Calm - 0.01 in   Overcast
4:51 AM 53.1 °F 52.0 °F 96% 30.06 in 1.5 mi Calm Calm - 0.01 in   Overcast
5:38 AM 53.6 °F 51.8 °F 94% 30.06 in 0.5 mi Calm Calm - N/A Fog Fog
5:51 AM 53.1 °F 52.0 °F 96% 30.05 in 0.5 mi Calm Calm - 0.01 in Fog Fog
6:19 AM 53.6 °F 53.6 °F 100% 30.04 in 0.2 mi Calm Calm - N/A Fog Fog
6:51 AM 54.0 °F 53.1 °F 97% 30.04 in 0.2 mi Calm Calm - N/A Fog Fog
7:51 AM 55.0 °F 54.0 °F 96% 30.03 in 0.2 mi Calm Calm - N/A Fog Fog
8:23 AM 55.4 °F 55.4 °F 100% 30.03 in 0.5 mi Calm Calm - N/A Fog Fog
8:36 AM 57.2 °F 55.4 °F 94% 30.03 in 2.0 mi Variable 3.5 mph - N/A   Overcast
8:51 AM 57.0 °F 55.9 °F 96% 30.02 in 8.0 mi Calm Calm - N/A   Overcast
9:27 AM 60.8 °F 57.2 °F 88% 30.02 in 10.0 mi Calm Calm - N/A   Overcast
9:51 AM 61.0 °F 57.9 °F 90% 30.02 in 10.0 mi Variable 3.5 mph - N/A   Overcast
10:47 AM 64.4 °F 57.2 °F 77% 30.00 in 10.0 mi Calm Calm - N/A   Overcast
10:51 AM 64.9 °F 59.0 °F 81% 30.00 in 10.0 mi Variable 3.5 mph - N/A   Mostly Cloudy
11:09 AM 66.2 °F 57.2 °F 73% 30.01 in 10.0 mi WNW 9.2 mph - N/A   Mostly Cloudy
11:16 AM 66.2 °F 59.0 °F 78% 30.00 in 10.0 mi WNW 5.8 mph - N/A   Scattered Clouds
11:51 AM 69.1 °F 60.1 °F 73% 29.97 in 10.0 mi Calm Calm - N/A   Mostly Cloudy
12:51 PM 71.1 °F 60.1 °F 68% 29.95 in 10.0 mi Variable 3.5 mph - N/A   Mostly Cloudy
1:47 PM 73.4 °F 60.8 °F 65% 29.94 in 10.0 mi Variable 4.6 mph - N/A   Mostly Cloudy
2:51 PM 75.0 °F 60.1 °F 60% 29.94 in 10.0 mi WNW 6.9 mph 17.3 mph N/A   Mostly Cloudy
3:51 PM 75.0 °F 60.1 °F 60% 29.93 in 10.0 mi WNW 11.5 mph - N/A   Overcast
5:51 PM 73.0 °F 59.0 °F 61% 29.94 in 10.0 mi NW 8.1 mph - N/A   Overcast
6:51 PM 72.0 °F 59.0 °F 64% 29.94 in 10.0 mi NW 8.1 mph - N/A   Mostly Cloudy
7:51 PM 69.1 °F 59.0 °F 70% 29.95 in 10.0 mi NW 5.8 mph - N/A   Mostly Cloudy
8:51 PM 66.0 °F 59.0 °F 78% 29.95 in 10.0 mi Calm Calm - N/A   Clear
9:51 PM 63.0 °F 57.9 °F 84% 29.96 in 10.0 mi Calm Calm - N/A   Clear
10:51 PM 60.1 °F 57.0 °F 90% 29.96 in 10.0 mi Calm Calm - N/A   Clear
11:51 PM 59.0 °F 57.0 °F 93% 29.97 in 9.0 mi Calm Calm - N/A   Clear